Location: R�serve Fauniques des Laurentides
(47.3100°N, 71.1900°W)
Time: 21:06:26
(UTC-04:00)

Amateur Radio Satellites - All Passes

Search period start: 31 March 2015 20:36
Search period end: 01 April 2015 20:36
Location: R�serve Fauniques des Laurentides, 47.3100°N, 71.1900°W

Satellite Date Start Highest point End Downlink Frequencies (MHz)
Time Altitude Azimuth
HO-68 31 Mar 20:38:10 20:45:22 82° 253° (WSW) 20:52:38 435.675
RS-15 31 Mar 20:45:39 20:56:27 60° 319° (NW) 21:07:33 29.354- 29.394
AUBIESAT-1 31 Mar 20:46:16 20:47:20 11° 312° (NW) 20:48:12 437.475
DELFI C3 31 Mar 20:46:18 20:49:37 25° 67° (ENE) 20:53:02 145.870
FUNcube-1 31 Mar 20:46:51 20:49:38 18° 63° (ENE) 20:52:34 145.935
CANX-2 31 Mar 20:53:00 20:57:12 61° 259° (W) 21:01:28 2200.000
UWE-3 31 Mar 20:56:58 21:00:27 27° 67° (ENE) 21:04:02 435.000/436.395/437.385
PRISM 31 Mar 20:59:48 21:02:23 16° 299° (WNW) 21:04:50 437.425
ZACube-1 31 Mar 21:00:05 21:03:25 24° 66° (ENE) 21:06:51 437.345
PCSat 31 Mar 21:00:31 21:03:43 16° 27° (NNE) 21:07:01 145.827
CUTE 1.7 + AOD 2 31 Mar 21:06:41 21:10:48 48° 261° (W) 21:14:58 437.475
CUBEBUG 2 31 Mar 21:06:52 21:10:44 40° 70° (ENE) 21:14:41 437.445
VELOX 1 31 Mar 21:07:30 21:09:22 13° 59° (ENE) 21:11:25 145.980
CINEMA 3 31 Mar 21:11:29 21:15:39 82° 76° (ENE) 21:19:50 145.822/145.860
AISAT 31 Mar 21:12:44 21:15:06 15° 60° (ENE) 21:17:37 437.250
CUBESAT XI-V 31 Mar 21:15:32 21:17:12 12° 303° (WNW) 21:18:38 437.345
AAUSAT CUBESAT 2 31 Mar 21:21:27 21:25:33 54° 260° (W) 21:29:42 437.432
ISS 31 Mar 21:23:15 21:24:37 12° 135° (SE) 21:26:05 145.825
STRAND 1 31 Mar 21:23:38 21:27:25 21° 300° (WNW) 21:31:05 437.568
HUMSAT D 31 Mar 21:30:48 21:34:12 26° 67° (ENE) 21:37:43 437.325/437.525
SEEDS 31 Mar 21:32:37 21:36:24 31° 265° (W) 21:40:12 437.485
UKube-1 31 Mar 21:37:11 21:41:19 45° 70° (ENE) 21:45:30 .
DANDE 31 Mar 21:37:17 21:39:52 34° 285° (WNW) 21:42:18 436.750
BRITE-PL 31 Mar 21:43:03 21:45:28 14° 271° (W) 21:47:39 437.365/2234.400
50 SAT 31 Mar 21:47:53 21:51:07 26° 67° (ENE) 21:54:26 437.505
GONETS M04 31 Mar 21:49:14 21:55:54 23° 304° (NW) 22:02:18
ESTCUBE 1 31 Mar 21:50:05 21:53:06 18° 62° (ENE) 21:56:14 437.505/2401.250
DX 1 31 Mar 21:50:37 21:54:57 66° 73° (ENE) 21:59:17 434.975-435.025
COMPASS 1 31 Mar 21:51:35 21:55:04 24° 267° (W) 21:58:30 437.405
DOVE 4 31 Mar 21:52:01 21:55:21 21° 268° (W) 21:58:32 437.250
SO-50 31 Mar 21:55:46 21:57:53 12° 345° (NNW) 21:59:57 436.795
Oscar 11 31 Mar 22:06:00 22:10:04 39° 263° (W) 22:14:09 145.826/435.025
DELFI C3 31 Mar 22:20:59 22:24:42 33° 264° (W) 22:28:25 145.870
FUNcube-1 31 Mar 22:21:39 22:25:40 49° 261° (W) 22:29:46 145.935
HO-68 31 Mar 22:29:48 22:34:21 17° 275° (W) 22:38:33 435.675
UWE-3 31 Mar 22:33:15 22:36:58 30° 265° (W) 22:40:41 435.000/436.395/437.385
CUBEBUG 1 31 Mar 22:33:43 22:37:47 38° 69° (ENE) 22:41:52 437.445
SPROUT 31 Mar 22:35:22 22:37:03 12° 60° (ENE) 22:38:55 437.525
ZACube-1 31 Mar 22:35:51 22:39:41 35° 264° (W) 22:43:31 437.345
VELOX 1 31 Mar 22:40:54 22:45:21 88° 255° (WSW) 22:49:49 145.980
PCSat 31 Mar 22:43:06 22:48:26 53° 50° (NE) 22:53:45 145.827
CUBEBUG 2 31 Mar 22:44:32 22:47:41 20° 269° (W) 22:50:46 437.445
AISAT 31 Mar 22:46:46 22:51:13 75° 257° (WSW) 22:55:40 437.250
UNISAT 6 31 Mar 22:50:46 22:54:54 32° 95° (E) 22:59:07 437.425
ISS 31 Mar 22:57:18 23:00:32 69° 152° (SSE) 23:03:47 145.825
QB50P1 31 Mar 22:58:28 23:01:31 19° 91° (E) 23:04:39 145.935-145.965
DUCHIFAT 1 31 Mar 22:58:49 23:01:49 19° 91° (E) 23:04:54 145.980
TIGRISAT 31 Mar 22:59:41 23:03:58 38° 97° (E) 23:08:19 435.000
RS-15 31 Mar 23:01:56 23:11:39 33° 351° (N) 23:21:40 29.354- 29.394
HUMSAT D 31 Mar 23:06:13 23:09:55 31° 265° (W) 23:13:38 437.325/437.525
QB50P2 31 Mar 23:13:48 23:17:28 28° 95° (E) 23:21:10 145.880/145.840
UKube-1 31 Mar 23:14:28 23:17:44 20° 268° (W) 23:20:55 .
50 SAT 31 Mar 23:22:29 23:25:58 29° 265° (W) 23:29:27 437.505
ESTCUBE 1 31 Mar 23:25:04 23:29:34 61° 259° (WSW) 23:34:06 437.505/2401.250
BUGSAT 1 31 Mar 23:27:19 23:30:44 26° 94° (E) 23:34:10 437.445
DX 1 31 Mar 23:29:16 23:31:43 14° 271° (W) 23:33:59 434.975-435.025
ANTELSAT 31 Mar 23:31:12 23:35:49 79° 103° (ESE) 23:40:30 437.575/2403.000
SO-50 31 Mar 23:39:15 23:40:35 11° 9° (N) 23:41:58 436.795
YUBILEINY 31 Mar 23:40:57 23:49:03 39° 67° (ENE) 23:57:10 435.215
POPSAT HIP 1 31 Mar 23:41:40 23:45:50 53° 100° (E) 23:49:58 437.405
TISAT 1 31 Mar 23:48:19 23:52:24 51° 72° (ENE) 23:56:31 437.305
NANOSAT C BR1 31 Mar 23:51:07 23:55:21 67° 102° (ESE) 23:59:33 145.865
POLYITAN 1 31 Mar 23:57:47 00:02:03 80° 103° (ESE) 00:06:19 437.675
SPROUT 01 Apr 00:08:17 00:12:35 85° 256° (WSW) 00:16:53 437.525
CUBEBUG 1 01 Apr 00:10:39 00:14:18 24° 267° (W) 00:17:52 437.445
SWISSCUBE 01 Apr 00:12:12 00:15:47 22° 62° (ENE) 00:19:28 437.505
BEESAT 01 Apr 00:14:45 00:18:16 21° 62° (ENE) 00:21:55 436.000
PCSat 01 Apr 00:27:01 00:31:37 28° 249° (WSW) 00:36:06 145.827
UNISAT 6 01 Apr 00:27:35 00:31:41 32° 292° (WNW) 00:35:46 437.425
QB50P1 01 Apr 00:33:36 00:37:39 44° 289° (WNW) 00:41:41 145.935-145.965
DUCHIFAT 1 01 Apr 00:33:52 00:37:54 45° 289° (WNW) 00:41:56 145.980
ISS 01 Apr 00:34:00 00:37:06 40° 351° (N) 00:40:12 145.825
TIGRISAT 01 Apr 00:36:43 00:40:36 27° 294° (WNW) 00:44:28 435.000
Oscar 19 01 Apr 00:46:33 00:46:44 10° 83° (E) 00:47:17 437.125/150
QB50P2 01 Apr 00:49:37 00:53:24 31° 292° (WNW) 00:57:08 145.880/145.840
ITUPSAT 1 01 Apr 01:01:59 01:06:39 52° 70° (ENE) 01:11:21 437.325
BUGSAT 1 01 Apr 01:02:41 01:06:15 30° 292° (WNW) 01:09:46 437.445
ANTELSAT 01 Apr 01:09:27 01:12:06 15° 300° (WNW) 01:14:36 437.575/2403.000
KKS-1 01 Apr 01:17:07 01:19:50 17° 61° (ENE) 01:22:41 437.445
RS-15 01 Apr 01:17:28 01:27:50 40° 24° (NNE) 01:38:43 29.354- 29.394
POPSAT HIP 1 01 Apr 01:18:27 01:21:24 18° 297° (WNW) 01:24:12 437.405
SO-50 01 Apr 01:18:56 01:22:54 24° 33° (NNE) 01:26:55 436.795
TISAT 1 01 Apr 01:25:45 01:28:34 17° 270° (W) 01:31:14 437.305
NANOSAT C BR1 01 Apr 01:28:18 01:30:45 15° 299° (WNW) 01:33:05 145.865
POLYITAN 1 01 Apr 01:35:25 01:37:27 13° 300° (WNW) 01:39:18 437.675
YUBILEINY 01 Apr 01:37:44 01:46:18 56° 269° (W) 01:54:43 435.215
STARS 01 Apr 01:42:19 01:45:19 19° 62° (ENE) 01:48:27 437.465
SWISSCUBE 01 Apr 01:48:36 01:53:20 54° 260° (W) 01:58:04 437.505
BEESAT 01 Apr 01:51:04 01:55:47 56° 259° (W) 02:00:32 436.000
ITAMSAT 1 01 Apr 01:55:49 01:58:39 15° 87° (E) 02:01:43 435.822/435.867
ISS 01 Apr 02:10:47 02:13:55 42° 11° (N) 02:17:01 145.825
Oscar 19 01 Apr 02:21:57 02:27:08 74° 102° (ESE) 02:32:20 437.125/150
ITUPSAT 1 01 Apr 02:41:12 02:44:54 21° 269° (W) 02:48:29 437.325
O/OREOS (USA 219) 01 Apr 02:44:18 02:46:57 16° 101° (E) 02:49:47 437.305
KKS-1 01 Apr 02:51:39 02:56:03 65° 258° (WSW) 03:00:28 437.445
SO-50 01 Apr 02:59:04 03:04:03 82° 234° (SW) 03:09:00 436.795
Gurwin Techsat 1B 01 Apr 02:59:27 03:04:34 45° 98° (E) 03:09:39 435.225
MOZHAYETS 4 01 Apr 03:11:53 03:14:41 16° 61° (ENE) 03:17:39
STARS 01 Apr 03:17:10 03:21:27 54° 260° (W) 03:25:46 437.465
HORYU 2 01 Apr 03:18:05 03:20:46 16° 89° (E) 03:23:38 437.375
M-CUBED/EXP-1 PRIME 01 Apr 03:20:13 03:22:04 13° 50° (NE) 03:24:08 437.505
RS-15 01 Apr 03:30:29 03:41:58 86° 52° (NE) 03:54:00 29.354- 29.394
ITAMSAT 1 01 Apr 03:33:41 03:38:53 79° 288° (WNW) 03:44:04 435.822/435.867
YUBILEINY 01 Apr 03:38:52 03:41:14 11° 290° (WNW) 03:42:55 435.215
AO-7 01 Apr 03:41:02 03:47:16 24° 89° (E) 03:53:47 29.400- 29.500
ISS 01 Apr 03:47:12 03:50:25 60° 210° (SSW) 03:53:36 145.825
AIST 1 01 Apr 03:55:47 04:00:08 62° 96° (E) 04:04:29
JAS-2 01 Apr 03:58:12 04:04:41 29° 88° (E) 04:10:52 435.910
GONETS M04 01 Apr 04:00:08 04:04:19 14° 47° (NE) 04:08:58
Oscar 19 01 Apr 04:02:25 04:06:00 19° 301° (WNW) 04:09:27 437.125/150
O/OREOS (USA 219) 01 Apr 04:21:19 04:25:54 66° 298° (WNW) 04:30:30 437.305
AUBIESAT-1 01 Apr 04:25:18 04:29:15 40° 63° (ENE) 04:33:33 437.475
Gurwin Techsat 1B 01 Apr 04:39:49 04:44:23 29° 296° (WNW) 04:48:51 435.225
SO-50 01 Apr 04:41:36 04:43:56 13° 251° (WSW) 04:46:02 436.795
MOZHAYETS 4 01 Apr 04:46:48 04:51:26 71° 259° (W) 04:56:07
M-CUBED/EXP-1 PRIME 01 Apr 04:52:00 04:56:10 80° 69° (ENE) 05:00:45 437.505
HORYU 2 01 Apr 04:53:26 04:57:55 62° 288° (WNW) 05:02:22 437.375
VERMONT LUNAR 01 Apr 04:58:24 05:00:35 16° 162° (SSE) 05:02:47 437.305
CUBESAT XI-V 01 Apr 05:06:25 05:09:44 20° 63° (ENE) 05:13:10 437.345
ITAMSAT 1 01 Apr 05:15:01 05:17:40 14° 305° (NW) 05:20:06 435.822/435.867
STRAND 1 01 Apr 05:25:21 05:28:59 20° 60° (ENE) 05:32:44 437.568
ISS 01 Apr 05:25:36 05:26:17 10° 226° (SW) 05:26:51 145.825
AO-7 01 Apr 05:32:49 05:41:10 84° 291° (WNW) 05:49:29 29.400- 29.500
AIST 1 01 Apr 05:35:36 05:38:18 15° 296° (WNW) 05:40:51
JAS-2 01 Apr 05:42:38 05:50:23 67° 290° (WNW) 05:57:28 435.910
RS-15 01 Apr 05:43:47 05:53:22 31° 254° (WSW) 06:02:54 29.354- 29.394
GONETS M04 01 Apr 05:55:04 06:03:45 57° 73° (ENE) 06:12:27
AUBIESAT-1 01 Apr 06:00:45 06:04:15 25° 263° (W) 06:07:56 437.475
PHONESAT 2.4 01 Apr 06:02:53 06:05:28 19° 164° (SSE) 06:08:05 2401.200-2431.200
O/OREOS (USA 219) 01 Apr 06:04:26 06:06:20 12° 320° (NW) 06:08:05 437.305
PRISM 01 Apr 06:16:13 06:20:25 70° 74° (ENE) 06:24:39 437.425
CUTE-I 01 Apr 06:16:34 06:20:54 25° 92° (E) 06:25:18 437.470
Cubesat XI-IV 01 Apr 06:17:37 06:22:01 26° 92° (E) 06:26:28 437.490
DANDE 01 Apr 06:28:51 06:31:30 17° 69° (ENE) 06:34:46 436.750
M-CUBED/EXP-1 PRIME 01 Apr 06:30:00 06:31:50 12° 270° (W) 06:33:31 437.505
VERMONT LUNAR 01 Apr 06:34:52 06:37:41 25° 179° (S) 06:40:31 437.305
CUBESAT XI-V 01 Apr 06:42:11 06:46:50 57° 260° (W) 06:51:29 437.345
STRAND 1 01 Apr 07:02:38 07:07:45 67° 258° (WSW) 07:12:54 437.568
CUSAT 1 01 Apr 07:02:47 07:06:55 45° 75° (ENE) 07:12:26 437.405
AO-7 01 Apr 07:26:38 07:33:00 25° 312° (NW) 07:39:08 29.400- 29.500
JAS-2 01 Apr 07:29:05 07:34:05 18° 310° (NW) 07:38:40 435.910
PHONESAT 2.4 01 Apr 07:40:13 07:43:15 27° 181° (S) 07:46:17 2401.200-2431.200
GONETS M04 01 Apr 07:52:25 08:00:19 37° 275° (W) 08:08:04
PRISM 01 Apr 07:54:28 07:56:27 13° 272° (W) 07:58:16 437.425
CUTE-I 01 Apr 07:56:08 08:01:18 50° 291° (WNW) 08:06:24 437.470
Cubesat XI-IV 01 Apr 07:57:16 08:02:24 49° 292° (WNW) 08:07:30 437.490
HO-68 01 Apr 08:04:09 08:08:10 16° 84° (E) 08:12:33 435.675
BRITE-PL 01 Apr 08:04:12 08:06:30 15° 89° (E) 08:09:03 437.365/2234.400
DANDE 01 Apr 08:10:51 08:14:52 56° 261° (W) 08:20:15 436.750
VERMONT LUNAR 01 Apr 08:12:24 08:14:49 18° 195° (SSW) 08:17:13 437.305
GOMX 1 01 Apr 08:34:47 08:37:58 20° 92° (E) 08:41:23 467.674
CANX-2 01 Apr 08:36:00 08:39:03 19° 90° (E) 08:42:13 2200.000
CUSAT 1 01 Apr 08:46:04 08:49:41 23° 265° (W) 08:53:59 437.405
CUTE 1.7 + AOD 2 01 Apr 08:49:11 08:52:38 23° 92° (E) 08:56:09 437.475
ANTELSAT 01 Apr 08:59:37 09:01:34 13° 59° (ENE) 09:03:43 437.575/2403.000
AAUSAT CUBESAT 2 01 Apr 09:02:09 09:05:12 19° 91° (E) 09:08:19 437.432
BEESAT 3 01 Apr 09:03:41 09:06:40 20° 114° (ESE) 09:09:45 437.485
CINEMA 3 01 Apr 09:03:49 09:06:27 16° 89° (E) 09:09:20 145.822/145.860
SEEDS 01 Apr 09:13:32 09:17:27 34° 96° (E) 09:21:23 437.485
PHONESAT 2.4 01 Apr 09:18:32 09:21:00 18° 198° (SSW) 09:23:27 2401.200-2431.200
POLYITAN 1 01 Apr 09:21:25 09:22:43 11° 59° (ENE) 09:24:13 437.675
COMPASS 1 01 Apr 09:31:09 09:35:14 43° 98° (E) 09:39:18 437.405
BRITE-PL 01 Apr 09:41:21 09:45:30 59° 287° (WNW) 09:49:49 437.365/2234.400
DOVE 4 01 Apr 09:45:54 09:50:15 72° 102° (ESE) 09:54:49 437.250
HO-68 01 Apr 09:49:57 09:57:12 80° 106° (ESE) 10:04:25 435.675
Oscar 11 01 Apr 09:50:08 09:53:58 30° 95° (E) 09:57:50 145.826/435.025
UNISAT 6 01 Apr 09:53:06 09:57:05 40° 69° (ENE) 10:01:12 437.425
QB50P1 01 Apr 09:54:29 09:57:46 23° 65° (ENE) 10:01:08 145.935-145.965
DUCHIFAT 1 01 Apr 09:54:32 09:57:46 22° 65° (ENE) 10:01:06 145.980
DELFI C3 01 Apr 09:57:31 10:01:00 27° 94° (E) 10:04:31 145.870
AIST 2 01 Apr 09:59:59 10:03:21 23° 115° (ESE) 10:06:48 435.215
TIGRISAT 01 Apr 10:01:44 10:05:49 47° 71° (ENE) 10:10:02 435.000
BEESAT 2 01 Apr 10:06:54 10:11:00 69° 124° (SE) 10:15:11 435.950
FUNcube-1 01 Apr 10:06:56 10:10:32 25° 93° (E) 10:14:15 145.935
QB50P2 01 Apr 10:09:54 10:13:39 32° 68° (ENE) 10:17:27 145.880/145.840
CANX-2 01 Apr 10:11:07 10:15:17 47° 289° (WNW) 10:19:26 2200.000
GOMX 1 01 Apr 10:12:17 10:16:22 44° 289° (WNW) 10:20:37 467.674
UWE-3 01 Apr 10:19:07 10:23:18 40° 97° (E) 10:27:35 435.000/436.395/437.385
BUGSAT 1 01 Apr 10:20:32 10:24:06 29° 68° (ENE) 10:27:42 437.445
ZACube-1 01 Apr 10:20:46 10:24:47 34° 96° (E) 10:28:54 437.345
CUTE 1.7 + AOD 2 01 Apr 10:24:41 10:28:43 38° 290° (WNW) 10:32:42 437.475
VELOX 1 01 Apr 10:29:54 10:32:09 14° 88° (E) 10:34:36 145.980
CUBEBUG 2 01 Apr 10:30:38 10:35:03 62° 101° (E) 10:39:35 437.445
ANTELSAT 01 Apr 10:33:30 10:37:47 81° 257° (WSW) 10:42:11 437.575/2403.000
AISAT 01 Apr 10:35:34 10:38:20 17° 89° (E) 10:41:15 437.250
AAUSAT CUBESAT 2 01 Apr 10:37:02 10:41:06 45° 289° (WNW) 10:45:07 437.432
POPSAT HIP 1 01 Apr 10:37:29 10:41:38 60° 73° (ENE) 10:45:48 437.405
CINEMA 3 01 Apr 10:39:43 10:44:06 62° 287° (WNW) 10:48:39 145.822/145.860
BEESAT 3 01 Apr 10:40:23 10:44:25 52° 313° (NW) 10:48:29 437.485
NANOSAT C BR1 01 Apr 10:46:41 10:50:53 75° 75° (ENE) 10:55:06 145.865
HUMSAT D 01 Apr 10:46:49 10:50:39 32° 95° (E) 10:54:32 437.325/437.525
SEEDS 01 Apr 10:49:33 10:53:10 26° 294° (WNW) 10:56:43 437.485
POLYITAN 1 01 Apr 10:53:49 10:58:03 90° 200° (SSW) 11:02:18 437.675
50 SAT 01 Apr 10:56:53 11:00:18 26° 94° (E) 11:03:47 437.505
UKube-1 01 Apr 10:57:31 11:01:46 53° 100° (E) 11:06:00 .
COMPASS 1 01 Apr 11:07:25 11:10:41 21° 295° (WNW) 11:13:53 437.405
DX 1 01 Apr 11:11:57 11:16:19 79° 103° (ESE) 11:20:39 434.975-435.025
ESTCUBE 1 01 Apr 11:15:15 11:18:47 22° 92° (E) 11:22:22 437.505/2401.250
DOVE 4 01 Apr 11:25:08 11:27:38 15° 298° (WNW) 11:30:01 437.250
Oscar 11 01 Apr 11:26:16 11:30:09 31° 292° (WNW) 11:33:59 145.826/435.025
DUCHIFAT 1 01 Apr 11:29:28 11:33:26 39° 262° (W) 11:37:23 145.980
QB50P1 01 Apr 11:29:31 11:33:29 39° 263° (W) 11:37:26 145.935-145.965
UNISAT 6 01 Apr 11:30:40 11:34:05 22° 268° (W) 11:37:29 437.425
DELFI C3 01 Apr 11:32:33 11:36:12 30° 292° (WNW) 11:39:47 145.870
AIST 2 01 Apr 11:37:33 11:41:42 48° 313° (NW) 11:45:54 435.215
HO-68 01 Apr 11:38:32 11:44:18 26° 305° (NW) 11:49:54 435.675
TIGRISAT 01 Apr 11:39:48 11:42:55 19° 270° (W) 11:45:57 435.000
FUNcube-1 01 Apr 11:42:55 11:47:00 38° 290° (WNW) 11:51:08 145.935
QB50P2 01 Apr 11:46:00 11:49:36 26° 266° (W) 11:53:11 145.880/145.840
BEESAT 2 01 Apr 11:46:21 11:49:35 21° 325° (NW) 11:52:48 435.950
SPROUT 01 Apr 11:53:25 11:55:31 14° 88° (E) 11:57:48 437.525
CUBEBUG 1 01 Apr 11:55:27 11:59:41 48° 100° (E) 12:03:52 437.445
BUGSAT 1 01 Apr 11:55:59 11:59:36 28° 265° (W) 12:03:08 437.445
UWE-3 01 Apr 11:56:03 11:59:41 25° 294° (WNW) 12:03:19 435.000/436.395/437.385
ZACube-1 01 Apr 11:57:18 12:01:05 28° 293° (WNW) 12:04:53 437.345
Oscar 19 01 Apr 12:04:22 12:08:14 23° 61° (ENE) 12:12:13 437.125/150
VELOX 1 01 Apr 12:04:52 12:09:16 67° 287° (WNW) 12:13:37 145.980
CUBEBUG 2 01 Apr 12:08:25 12:11:23 17° 297° (WNW) 12:14:15 437.445
AISAT 01 Apr 12:11:01 12:15:22 56° 288° (WNW) 12:19:40 437.250
POPSAT HIP 1 01 Apr 12:15:33 12:17:59 14° 272° (W) 12:20:15 437.405
BEESAT 3 01 Apr 12:21:25 12:23:26 13° 334° (NNW) 12:25:22 437.485
HUMSAT D 01 Apr 12:22:41 12:26:22 28° 293° (WNW) 12:30:00 437.325/437.525
NANOSAT C BR1 01 Apr 12:25:46 12:27:21 12° 274° (W) 12:28:44 145.865
50 SAT 01 Apr 12:31:39 12:35:14 30° 292° (WNW) 12:38:46 437.505
UKube-1 01 Apr 12:34:31 12:37:35 19° 298° (WNW) 12:40:32 .
YUBILEINY 01 Apr 12:46:14 12:54:04 39° 86° (E) 13:02:04 435.215
Gurwin Techsat 1B 01 Apr 12:46:31 12:49:40 17° 57° (ENE) 12:53:02 435.225
O/OREOS (USA 219) 01 Apr 12:49:04 12:53:32 51° 60° (ENE) 12:57:57 437.305
DX 1 01 Apr 12:49:48 12:52:01 14° 301° (WNW) 12:54:06 434.975-435.025
ESTCUBE 1 01 Apr 12:51:35 12:55:53 43° 291° (WNW) 13:00:08 437.505/2401.250
AO-7 01 Apr 12:56:26 13:00:00 14° 36° (NE) 13:03:53 29.400- 29.500
ITUPSAT 1 01 Apr 13:02:30 13:03:06 10° 84° (E) 13:03:59 437.325
TISAT 1 01 Apr 13:05:24 13:09:35 61° 102° (ESE) 13:13:44 437.305
ITAMSAT 1 01 Apr 13:16:14 13:20:49 33° 65° (ENE) 13:25:28 435.822/435.867
AIST 2 01 Apr 13:19:15 13:21:20 13° 335° (NNW) 13:23:21 435.215
SPROUT 01 Apr 13:27:52 13:32:08 66° 286° (WNW) 13:36:22 437.525
PCSat 01 Apr 13:29:00 13:33:12 24° 109° (ESE) 13:37:32 145.827
CUBEBUG 1 01 Apr 13:32:34 13:35:45 20° 297° (WNW) 13:38:51 437.445
Oscar 19 01 Apr 13:42:12 13:47:15 58° 260° (W) 13:52:20 437.125/150
SWISSCUBE 01 Apr 13:46:01 13:50:13 30° 95° (E) 13:54:27 437.505
BEESAT 01 Apr 13:48:24 13:52:35 30° 95° (E) 13:56:47 436.000
AIST 1 01 Apr 14:00:19 14:03:40 22° 68° (ENE) 14:07:03
JAS-2 01 Apr 14:14:06 14:19:21 22° 53° (NE) 14:25:01 435.910
HORYU 2 01 Apr 14:19:24 14:22:48 23° 64° (ENE) 14:26:19 437.375
Gurwin Techsat 1B 01 Apr 14:23:42 14:29:01 87° 253° (WSW) 14:34:24 435.225
O/OREOS (USA 219) 01 Apr 14:29:17 14:32:38 20° 258° (WSW) 14:35:49 437.305
ITUPSAT 1 01 Apr 14:37:04 14:41:54 82° 105° (ESE) 14:46:42 437.325
KKS-1 01 Apr 14:40:22 14:43:34 19° 91° (E) 14:46:51 437.445
YUBILEINY 01 Apr 14:42:04 14:50:41 55° 287° (WNW) 14:59:20 435.215
TISAT 1 01 Apr 14:42:22 14:44:58 16° 298° (WNW) 14:47:26 437.305
AO-7 01 Apr 14:43:10 14:50:52 45° 59° (ENE) 14:58:38 29.400- 29.500
ITAMSAT 1 01 Apr 14:55:24 15:00:17 38° 263° (W) 15:05:08 435.822/435.867
STARS 01 Apr 15:04:18 15:07:42 22° 92° (E) 15:11:11 437.465
PCSat 01 Apr 15:10:53 15:16:15 61° 308° (NW) 15:21:40 145.827
SWISSCUBE 01 Apr 15:23:45 15:28:09 36° 293° (WNW) 15:32:28 437.505
BEESAT 01 Apr 15:26:06 15:30:30 36° 293° (WNW) 15:34:50 436.000
AIST 1 01 Apr 15:37:30 15:41:32 38° 268° (W) 15:45:29
BEESAT 3 01 Apr 15:42:26 15:43:22 11° 21° (NNE) 15:44:23 437.485
HORYU 2 01 Apr 15:54:58 15:59:13 45° 261° (W) 16:03:32 437.375
JAS-2 01 Apr 15:56:07 16:03:18 81° 73° (ENE) 16:11:09 435.910
CUTE-I 01 Apr 16:06:51 16:07:28 10° 51° (NE) 16:08:20 437.470
Gurwin Techsat 1B 01 Apr 16:07:24 16:09:55 13° 275° (W) 16:12:09 435.225
Cubesat XI-IV 01 Apr 16:07:38 16:08:39 11° 52° (NE) 16:09:57 437.490
KKS-1 01 Apr 16:16:12 16:20:31 49° 289° (WNW) 16:24:48 437.445
ITUPSAT 1 01 Apr 16:16:24 16:19:14 15° 302° (WNW) 16:21:54 437.325
AO-7 01 Apr 16:35:38 16:43:40 50° 260° (W) 16:51:40 29.400- 29.500
MOZHAYETS 4 01 Apr 16:39:26 16:43:03 23° 91° (E) 16:46:45
STARS 01 Apr 16:40:12 16:44:22 42° 291° (WNW) 16:48:32 437.465
AIST 2 01 Apr 16:40:43 16:42:26 12° 23° (NNE) 16:44:15 435.215
YUBILEINY 01 Apr 16:45:52 16:50:13 14° 314° (NW) 16:54:04 435.215
BEESAT 2 01 Apr 16:46:06 16:49:15 21° 35° (NE) 16:52:26 435.950
PCSat 01 Apr 16:57:17 17:00:51 17° 331° (NNW) 17:04:19 145.827
GONETS M04 01 Apr 17:11:00 17:13:12 11° 71° (ENE) 17:16:04
SO-50 01 Apr 17:18:30 17:21:08 15° 111° (ESE) 17:24:00 436.795
BEESAT 3 01 Apr 17:18:45 17:22:36 37° 44° (NE) 17:26:26 437.485
AUBIESAT-1 01 Apr 17:38:33 17:42:14 22° 96° (E) 17:45:57 437.475
CUTE-I 01 Apr 17:41:19 17:46:32 56° 70° (ENE) 17:51:48 437.470
Cubesat XI-IV 01 Apr 17:42:32 17:47:47 58° 71° (ENE) 17:53:04 437.490
JAS-2 01 Apr 17:43:37 17:49:21 24° 275° (W) 17:55:10 435.910
RS-15 01 Apr 17:58:54 18:08:27 39° 109° (ESE) 18:18:22 29.354- 29.394
M-CUBED/EXP-1 PRIME 01 Apr 18:05:29 18:10:07 43° 102° (ESE) 18:14:38 437.505
MOZHAYETS 4 01 Apr 18:16:05 18:20:32 45° 290° (WNW) 18:24:57
AIST 2 01 Apr 18:18:03 18:22:09 43° 45° (NE) 18:26:13 435.215
BEESAT 2 01 Apr 18:23:42 18:27:51 70° 236° (SW) 18:31:55 435.950
CUBESAT XI-V 01 Apr 18:36:05 18:40:04 28° 93° (E) 18:44:04 437.345
HO-68 01 Apr 18:36:50 18:41:40 20° 51° (NE) 18:46:44 435.675
SO-50 01 Apr 18:56:25 19:01:06 81° 308° (NW) 19:05:58 436.795
BEESAT 3 01 Apr 18:56:58 19:00:35 29° 243° (WSW) 19:04:06 437.485
GONETS M04 01 Apr 18:59:50 19:08:15 58° 91° (E) 19:16:48
STRAND 1 01 Apr 19:10:12 19:14:46 33° 95° (E) 19:19:22 437.568
AUBIESAT-1 01 Apr 19:12:38 19:17:22 53° 294° (WNW) 19:21:57 437.475
BRITE-PL 01 Apr 19:18:03 19:21:42 25° 67° (ENE) 19:25:15 437.365/2234.400
DOVE 4 01 Apr 19:20:26 19:22:02 12° 60° (ENE) 19:23:50 437.250
CUTE-I 01 Apr 19:22:45 19:27:01 23° 269° (W) 19:31:10 437.470
Cubesat XI-IV 01 Apr 19:24:07 19:28:19 22° 269° (W) 19:32:24 437.490
PRISM 01 Apr 19:31:07 19:35:19 74° 103° (ESE) 19:39:27 437.425
CANX-2 01 Apr 19:32:19 19:35:29 21° 65° (ENE) 19:38:46 2200.000
M-CUBED/EXP-1 PRIME 01 Apr 19:40:35 19:44:49 29° 301° (WNW) 19:48:54 437.505
CUTE 1.7 + AOD 2 01 Apr 19:45:20 19:48:48 26° 66° (ENE) 19:52:23 437.475
GOMX 1 01 Apr 19:46:21 19:50:08 31° 68° (ENE) 19:53:50 467.674
AAUSAT CUBESAT 2 01 Apr 19:56:26 19:59:31 21° 65° (ENE) 20:02:43 437.432
AIST 2 01 Apr 19:57:01 20:00:35 26° 244° (WSW) 20:04:02 435.215
SEEDS 01 Apr 20:08:44 20:12:36 36° 69° (ENE) 20:16:32 437.485
CINEMA 3 01 Apr 20:09:14 20:12:12 20° 64° (ENE) 20:15:15 145.822/145.860
RS-15 01 Apr 20:09:16 20:20:10 71° 313° (NW) 20:31:25 29.354- 29.394
CUBESAT XI-V 01 Apr 20:13:21 20:17:36 36° 292° (WNW) 20:21:46 437.345
CUSAT 1 01 Apr 20:17:59 20:20:10 23° 95° (E) 20:22:23 437.405
HO-68 01 Apr 20:21:18 20:28:28 80° 71° (ENE) 20:35:42 435.675
COMPASS 1 01 Apr 20:25:29 20:29:29 44° 71° (ENE) 20:33:32 437.405
PCSat 01 Apr 20:30:02 20:32:40 14° 23° (NNE) 20:35:25 145.827
